[[{"header":{"parameterUnit":"m.s-1","parameterCategory":2,"la1":30.2991,"la2":30.254,"lo1":-89.0895,"lo2":-89.0444,"dy":0.0017,"dx":0.0017,"nx":28,"ny":28,"refTime":"2024-04-16T03:00:00:Z","depth":"0","parameterNumber":2,"parameterNumberName":"U-component_of_CURRENTS"},"data":[0,0,0,0,0,0,0,0,0,0,0,0,0,0,0,0,0,0,0,0,0,0,0,0,0,0,0,0,0,0,0,0,0,0,0,0,0,0,0,0,0,0,0,0,0,0,0,0,0,0,0,0,0,0,0,0,0,0,0.2247,0.2248,0,0.2312,0.2313,0.2313,0.2321,0.232,0.232,0.232,0.2329,0.233,0.233,0,0,0,0,0,0,0,0,0,0,0,0,0,0.2141,0.2142,0.2247,0.2248,0.2249,0.2312,0.2313,0.2313,0.2321,0.232,0.232,0.2319,0.2329,0.2329,0.233,0,0,0,0,0,0,0,0,0,0,0,0,0,0.2192,0.2143,0.2247,0.2262,0.2265,0.2312,0.2313,0.2313,0.2321,0.232,0.232,0.2319,0.2328,0.2329,0.233,0.2348,0,0,0.2333,0.2334,0,0,0,0,0,0,0,0,0.2189,0.2195,0.2259,0.2261,0.2264,0.231,0.2279,0.2323,0.2321,0.2297,0.232,0.2319,0.232,0.2321,0.2332,0.2348,0.2349,0.2333,0.2334,0.2334,0.2334,0,0,0,0,0,0,0,0.2185,0.2193,0.227,0.226,0.2263,0.2271,0.2277,0.2287,0.2308,0.2299,0.23,0.2312,0.232,0.2331,0.2332,0.2349,0.2333,0.2334,0.2335,0.2335,0.2387,0.2388,0,0,0,0,0,0,0.2183,0.219,0.2268,0.2272,0.2227,0.2273,0.228,0.2294,0.2309,0.2312,0.2312,0.2312,0.233,0.2331,0.2332,0.2365,0.2334,0.2335,0.2336,0.2386,0.2387,0.2388,0,0,0,0,0,0,0.2181,0.219,0.2265,0.2234,0.2245,0.2276,0.2291,0.2295,0.2308,0.232,0.2321,0.2321,0.2329,0.2331,0.2352,0.2365,0.2335,0.2336,0.2385,0.2386,0.2388,0.2424,0,0,0,0,0,0,0.2177,0.2188,0.2196,0.2234,0.2246,0.2299,0.2292,0.2297,0.2318,0.2318,0.2328,0.2329,0.2329,0.2351,0.2353,0.2366,0.2337,0.2384,0.2386,0.2387,0.2422,0.2426,0.243,0,0,0,0,0,0.2173,0.2189,0.2196,0.2206,0.2257,0.23,0.2307,0.2325,0.2319,0.2332,0.234,0.2328,0.2362,0.2353,0.2355,0.2368,0.2383,0.2385,0.2387,0.242,0.2426,0.243,0,0,0,0,0,0,0.2145,0.2193,0.2201,0.2229,0.2265,0.2303,0.2318,0.2328,0.2346,0.2342,0.2344,0.2346,0.237,0.2365,0.2355,0.2388,0.2369,0.2371,0.2393,0.2398,0.2402,0.2399,0.2338,0,0,0,0,0,0.2144,0.2169,0.2213,0.2236,0.2254,0.2285,0.2303,0.2318,0.2341,0.2348,0.2357,0.2365,0.2381,0.2385,0.2399,0.2417,0.2439,0.2425,0.243,0.2433,0.2433,0.2477,0.2485,0.2394,0.2394,0.2394,0,0,0.2139,0.2169,0.2182,0.2232,0.2258,0.2292,0.2294,0.2327,0.235,0.2346,0.2373,0.2384,0.2391,0.2416,0.2425,0.2412,0.2477,0.2436,0.2439,0.2436,0.248,0.2489,0.2497,0.2395,0.2395,0.2395,0,0,0.2144,0.2169,0.2192,0.2224,0.227,0.2296,0.2306,0.2348,0.236,0.2392,0.2396,0.2414,0.2435,0.2447,0.2454,0.2488,0.2502,0.249,0.2505,0.2548,0.2556,0.2563,0.2632,0.2645,0.2487,0.2487,0.2487,0,0.2134,0.2173,0.2205,0.2237,0.2262,0.2298,0.2325,0.2353,0.2394,0.2405,0.2402,0.2445,0.2449,0.2483,0.2495,0.2497,0.2534,0.2485,0.2555,0.2562,0.2569,0.2637,0.2651,0.2489,0.2489,0.2488,0.2488,0,0.2162,0.2191,0.2209,0.2262,0.229,0.2325,0.2366,0.2389,0.2405,0.2432,0.2468,0.2485,0.2508,0.2514,0.2514,0.2563,0.2581,0.2561,0.2542,0.258,0.265,0.2664,0.2492,0.2491,0.249,0.249,0,0,0.2147,0.2214,0.222,0.2243,0.2305,0.2331,0.2368,0.2414,0.2445,0.2473,0.251,0.2535,0.2548,0.2557,0.2566,0.2596,0.2684,0.2599,0.26,0.2669,0.2811,0.2823,0.2839,0.268,0.2682,0.2683,0.2852,0,0.216,0.221,0.2243,0.229,0.232,0.2356,0.2393,0.2433,0.2472,0.2521,0.2537,0.2587,0.2566,0.2592,0.2617,0.2671,0.2717,0.2641,0.2761,0.2765,0.2772,0.2853,0.2736,0.2876,0.2865,0.2868,0.2869,0,0.2177,0.2212,0.2249,0.2305,0.2321,0.2352,0.2409,0.2452,0.2521,0.2551,0.2591,0.2627,0.2686,0.266,0.2766,0.2724,0.277,0.2804,0.2811,0.2813,0.2801,0.283,0.2901,0.2811,0.289,0.2889,0.2887,0,0.2146,0.2214,0.2238,0.226,0.2331,0.2344,0.2387,0.2454,0.2494,0.2586,0.2636,0.2697,0.2759,0.2805,0.2884,0.2836,0.3012,0.2953,0.3011,0.3013,0.2931,0.2923,0.2924,0.303,0.303,0.3029,0.3029,0,0.2143,0.2165,0.2227,0.224,0.2279,0.2333,0.2381,0.2433,0.2516,0.258,0.2659,0.2737,0.28,0.2905,0.2934,0.3042,0.3062,0.3041,0.3061,0.2944,0.2935,0.2865,0.2824,0.3036,0.3034,0.3033,0.3032,0,0.2092,0.2138,0.2171,0.2238,0.226,0.2286,0.2367,0.2404,0.251,0.2599,0.2637,0.2795,0.295,0.303,0.3148,0.3135,0.3134,0.3246,0.3124,0.3125,0.3044,0.301,0.2954,0.2865,0.332,0.3321,0.3322,0,0.2062,0.2077,0.2145,0.2163,0.219,0.2241,0.227,0.2374,0.2427,0.2635,0.2678,0.2882,0.2992,0.3205,0.3258,0.335,0.3223,0.3279,0.3144,0.3052,0.3029,0.2889,0.2806,0.3068,0.3066,0.3066,0.3065,0,0.2009,0.2035,0.2059,0.2115,0.2145,0.2176,0.2242,0.2281,0.2421,0.2524,0.2702,0.2817,0.3058,0.3129,0.3279,0.3301,0.3107,0.3264,0.3186,0.2856,0.2686,0.2606,0.2969,0.3057,0.3058,0.3059,0.3059,0.3059,0.197,0.1983,0.2037,0.2068,0.21,0.2128,0.2131,0.2215,0.2309,0.2453,0.2633,0.2779,0.2955,0.3157,0.3171,0.3132,0.3094,0.301,0.2993,0.2873,0.2719,0.3089,0.3181,0.3183,0.3184,0.3185,0.3186,0,0.1961,0.1986,0.1998,0.2049,0.2042,0.2081,0.212,0.2113,0.2188,0.2347,0.2487,0.2694,0.278,0.2897,0.2966,0.2868,0.2689,0.2777,0.2521,0.2465,0.2819,0.2736,0.2713,0.2713,0.2713,0.2713,0.2714,0.2714,0.1981,0.1991,0.199,0.1987,0.2,0.1973,0.197,0.1973,0.2049,0.2167,0.2285,0.2437,0.2659,0.2785,0.2727,0.2649,0.2418,0.2316,0.2304,0.2528,0.2545,0.2562,0.2472,0.2394,0.2394,0.1812,0.1808,0.1805]},{"header":{"parameterUnit":"m.s-1","parameterCategory":2,"la1":30.2991,"la2":30.254,"lo1":-89.0895,"lo2":-89.0444,"dy":0.0017,"dx":0.0017,"nx":28,"ny":28,"refTime":"2024-04-16T03:00:00:Z","depth":"0","parameterNumber":3,"parameterNumberName":"V-component_of_CURRENTS"},"data":[0,0,0,0,0,0,0,0,0,0,0,0,0,0,0,0,0,0,0,0,0,0,0,0,0,0,0,0,0,0,0,0,0,0,0,0,0,0,0,0,0,0,0,0,0,0,0,0,0,0,0,0,0,0,0,0,0,0,-0.0012,-0.0013,0,-0.0052,-0.0052,-0.0053,-0.0078,-0.0078,-0.0078,-0.0078,-0.0152,-0.0154,-0.0156,0,0,0,0,0,0,0,0,0,0,0,0,0,0.0008,0.0008,-0.0012,-0.0013,-0.0013,-0.0052,-0.0052,-0.0053,-0.0078,-0.0078,-0.0078,-0.0078,-0.0152,-0.0154,-0.0156,0,0,0,0,0,0,0,0,0,0,0,0,0,-0.0014,0.0008,-0.0012,-0.003,-0.0032,-0.0052,-0.0052,-0.0053,-0.0078,-0.0078,-0.0078,-0.0078,-0.0151,-0.0153,-0.0156,-0.017,0,0,-0.0165,-0.0166,0,0,0,0,0,0,0,0,-0.0012,-0.0014,-0.0027,-0.0029,-0.0031,-0.006,-0.0072,-0.0094,-0.0078,-0.0061,-0.0078,-0.0078,-0.0124,-0.0129,-0.0136,-0.0173,-0.0177,-0.0165,-0.0167,-0.0168,-0.0169,0,0,0,0,0,0,0,-0.0011,-0.0013,-0.0028,-0.0027,-0.003,-0.0048,-0.0051,-0.0077,-0.0092,-0.0062,-0.0064,-0.0068,-0.0126,-0.0133,-0.0138,-0.0178,-0.0165,-0.0167,-0.0169,-0.017,-0.0236,-0.0236,0,0,0,0,0,0,-0.0003,-0.0011,-0.0027,-0.0029,-0.0022,-0.0048,-0.0051,-0.0051,-0.0091,-0.0097,-0.0068,-0.0069,-0.0128,-0.0135,-0.0141,-0.0167,-0.0168,-0.017,-0.0172,-0.0235,-0.0236,-0.0236,0,0,0,0,0,0,-0.0003,-0.0004,-0.0025,-0.0021,-0.0025,-0.0048,-0.0047,-0.0051,-0.0059,-0.0095,-0.0101,-0.0071,-0.0129,-0.0137,-0.0163,-0.017,-0.0172,-0.0174,-0.0235,-0.0236,-0.0236,-0.0215,0,0,0,0,0,0,-0.0002,-0.0003,-0.0,-0.0021,-0.0025,-0.0035,-0.0047,-0.0052,-0.0061,-0.0063,-0.01,-0.0107,-0.013,-0.0159,-0.0166,-0.0174,-0.0176,-0.0235,-0.0235,-0.0236,-0.0216,-0.0214,-0.0213,0,0,0,0,0,-0.0001,0.0009,0.0,-0.0002,-0.002,-0.0035,-0.0039,-0.0057,-0.0061,-0.0064,-0.0089,-0.0106,-0.0165,-0.0161,-0.017,-0.0178,-0.0235,-0.0235,-0.0236,-0.0216,-0.0215,-0.0213,0,0,0,0,0,0,0.0023,0.0006,-0.0003,0.0002,-0.0016,-0.0039,-0.004,-0.0054,-0.0075,-0.0076,-0.0109,-0.0117,-0.0143,-0.0161,-0.0157,-0.0197,-0.0202,-0.0204,-0.0185,-0.0184,-0.0183,-0.0159,-0.0179,0,0,0,0,0,0.0028,0.0029,0.0008,0.001,0.0005,-0.0018,-0.0026,-0.0039,-0.006,-0.0069,-0.0096,-0.0124,-0.015,-0.0166,-0.0192,-0.0214,-0.0223,-0.0224,-0.0223,-0.0222,-0.0208,-0.0242,-0.0242,-0.0236,-0.0236,-0.0236,0,0,0.0038,0.0029,0.0029,0.0015,0.0002,-0.0003,-0.0023,-0.0032,-0.004,-0.0075,-0.0093,-0.0122,-0.0155,-0.018,-0.0193,-0.0197,-0.0226,-0.0222,-0.0221,-0.0207,-0.0242,-0.0243,-0.0243,-0.0236,-0.0236,-0.0236,0,0,0.006,0.005,0.0059,0.0045,0.0026,0.001,0.0008,-0.0017,-0.0031,-0.0054,-0.008,-0.0111,-0.015,-0.0177,-0.0195,-0.0202,-0.0218,-0.0211,-0.0188,-0.0222,-0.0223,-0.0224,-0.0221,-0.0222,-0.0211,-0.0211,-0.0211,0,0.0073,0.0079,0.0058,0.0059,0.0056,0.0018,0.0026,0.0002,-0.0031,-0.0035,-0.0056,-0.0113,-0.0148,-0.0176,-0.0179,-0.02,-0.0206,-0.0192,-0.022,-0.0221,-0.0223,-0.022,-0.0221,-0.021,-0.021,-0.021,-0.021,0,0.0098,0.01,0.0105,0.0094,0.0086,0.0084,0.0053,0.004,0.0017,-0.0006,-0.0039,-0.0093,-0.0119,-0.0147,-0.0166,-0.019,-0.0187,-0.0215,-0.0222,-0.0222,-0.0219,-0.0221,-0.0209,-0.0209,-0.0209,-0.0209,0,0,0.0133,0.0125,0.0126,0.0134,0.0106,0.0107,0.0094,0.008,0.0086,0.0026,0.0029,-0.0044,-0.0068,-0.0088,-0.0129,-0.0168,-0.0186,-0.0188,-0.019,-0.0181,-0.0231,-0.0189,-0.0186,-0.0222,-0.0223,-0.0223,-0.022,0,0.016,0.0177,0.0164,0.0181,0.019,0.0162,0.016,0.0139,0.0113,0.0102,0.0032,0.0016,-0.0049,-0.0054,-0.0108,-0.0157,-0.0191,-0.0182,-0.0235,-0.0236,-0.0197,-0.0188,-0.018,-0.0173,-0.0222,-0.0222,-0.0222,0,0.0191,0.0198,0.0226,0.0237,0.0241,0.0247,0.0255,0.0248,0.0216,0.0199,0.0157,0.0112,0.0059,-0.0001,-0.0099,-0.0087,-0.0149,-0.0204,-0.0206,-0.0172,-0.0197,-0.0185,-0.0174,-0.0344,-0.0225,-0.0225,-0.0224,0,0.0235,0.0245,0.0274,0.0274,0.0276,0.0297,0.03,0.0284,0.0303,0.0272,0.0295,0.0197,0.0192,0.0071,-0.0026,-0.0062,-0.0122,-0.0191,-0.0215,-0.0211,-0.0215,-0.0211,-0.037,-0.0264,-0.0264,-0.0264,-0.0264,0,0.0273,0.0296,0.0301,0.0318,0.0365,0.035,0.0403,0.0392,0.04,0.046,0.0359,0.0404,0.0211,0.0158,0.002,-0.007,-0.0084,-0.0193,-0.0209,-0.0205,-0.02,-0.0356,-0.0443,-0.0264,-0.0264,-0.0264,-0.0264,0,0.0325,0.032,0.0363,0.038,0.0392,0.0433,0.0486,0.0521,0.0526,0.0606,0.0614,0.0571,0.0524,0.0341,0.0183,0.0037,-0.0168,-0.0121,-0.0078,-0.009,-0.0293,-0.0376,-0.0498,-0.0565,-0.0165,-0.0164,-0.0163,0,0.0358,0.0383,0.0422,0.0461,0.0479,0.0534,0.0574,0.0582,0.0643,0.0742,0.08,0.0785,0.0823,0.0605,0.0332,0.0104,-0.0079,-0.0053,-0.0141,-0.0285,-0.0393,-0.0459,-0.0512,-0.0137,-0.0136,-0.0136,-0.0135,0,0.0431,0.0445,0.0481,0.056,0.0613,0.0674,0.0748,0.0822,0.0879,0.0986,0.1152,0.12,0.1007,0.0807,0.0472,0.0279,-0.0164,-0.0041,-0.0226,-0.04,-0.0449,-0.0525,-0.0136,-0.0128,-0.0128,-0.0129,-0.0129,-0.013,0.0505,0.0551,0.0609,0.0686,0.0738,0.0839,0.0933,0.1044,0.1205,0.1405,0.1427,0.1549,0.1183,0.0743,0.0468,-0.0074,-0.0079,-0.0257,-0.0347,-0.0401,-0.0471,-0.0033,-0.0023,-0.0023,-0.0023,-0.0023,-0.0023,0,0.0633,0.0676,0.0737,0.0838,0.0911,0.0917,0.1067,0.1189,0.1436,0.1608,0.1774,0.1665,0.1236,0.0733,0.0017,-0.0338,-0.0503,-0.0539,-0.0679,-0.0722,-0.0368,-0.0376,-0.0399,-0.0399,-0.0399,-0.0398,-0.0398,-0.0398,0.0718,0.081,0.0827,0.0978,0.1043,0.1177,0.128,0.1477,0.1634,0.1874,0.1953,0.1974,0.1555,0.0331,-0.0525,-0.0723,-0.0974,-0.0988,-0.1116,-0.0935,-0.0918,-0.0902,-0.0933,-0.1072,-0.1073,-0.1445,-0.1449,-0.1452]}],[{"header":{"parameterUnit":"m.s-1","parameterCategory":2,"la1":30.2991,"la2":30.254,"lo1":-89.0895,"lo2":-89.0444,"dy":0.0017,"dx":0.0017,"nx":28,"ny":28,"refTime":"2024-04-16T03:00:00:Z","depth":"2","parameterNumber":2,"parameterNumberName":"U-component_of_CURRENTS"},"data":[0,0,0,0,0,0,0,0,0,0,0,0,0,0,0,0,0,0,0,0,0,0,0,0,0,0,0,0,0,0,0,0,0,0,0,0,0,0,0,0,0,0,0,0,0,0,0,0,0,0,0,0,0,0,0,0,0,0,0.1999,0.2,0,0.2044,0.2043,0.2043,0.2018,0.2018,0.2017,0.2017,0.2057,0.2058,0.206,0,0,0,0,0,0,0,0,0,0,0,0,0,0.1908,0.1909,0.1998,0.2,0.2001,0.2044,0.2043,0.2043,0.2018,0.2018,0.2017,0.2016,0.2056,0.2058,0.206,0,0,0,0,0,0,0,0,0,0,0,0,0,0.1943,0.191,0.1998,0.1999,0.2,0.2044,0.2043,0.2043,0.2019,0.2018,0.2017,0.2016,0.2056,0.2058,0.206,0.2092,0,0,0.2067,0.2068,0,0,0,0,0,0,0,0,0.1941,0.1945,0.1998,0.1999,0.2001,0.2031,0.2027,0.2062,0.2019,0.2004,0.2017,0.2016,0.2053,0.2056,0.2055,0.2094,0.2095,0.2068,0.2069,0.207,0.2071,0,0,0,0,0,0,0,0.1938,0.1943,0.2009,0.1999,0.2001,0.2004,0.2007,0.2033,0.2027,0.2005,0.2005,0.2022,0.2053,0.2053,0.2056,0.2096,0.2068,0.207,0.2071,0.2072,0.2176,0.2178,0,0,0,0,0,0,0.1948,0.1941,0.2008,0.2011,0.1976,0.2007,0.201,0.2016,0.2027,0.203,0.2023,0.2021,0.2049,0.2054,0.2058,0.2151,0.207,0.2072,0.2074,0.2175,0.2177,0.2178,0,0,0,0,0,0,0.1946,0.1953,0.2006,0.1983,0.1991,0.201,0.2017,0.2018,0.2029,0.2042,0.2043,0.2036,0.2049,0.2054,0.21,0.215,0.2073,0.2076,0.2174,0.2176,0.2177,0.2303,0,0,0,0,0,0,0.1943,0.1952,0.196,0.1984,0.1993,0.204,0.2018,0.2019,0.2044,0.2042,0.2054,0.2056,0.2049,0.2097,0.2102,0.2152,0.2077,0.2172,0.2174,0.2177,0.2297,0.2309,0.2319,0,0,0,0,0,0.1939,0.1954,0.196,0.1969,0.2003,0.2042,0.2046,0.2051,0.2046,0.2057,0.2072,0.2056,0.2116,0.2101,0.2107,0.2159,0.2171,0.2174,0.2177,0.2292,0.2307,0.2319,0,0,0,0,0,0,0.1908,0.1955,0.1961,0.1985,0.2018,0.2041,0.2062,0.2065,0.2084,0.2091,0.2085,0.2089,0.216,0.213,0.2113,0.219,0.2136,0.2141,0.2222,0.2236,0.2246,0.2222,0.2079,0,0,0,0,0,0.1912,0.1941,0.1978,0.2001,0.2023,0.2046,0.2064,0.2075,0.2099,0.2105,0.2124,0.2139,0.2175,0.2181,0.2213,0.2249,0.2234,0.2279,0.2291,0.23,0.2282,0.2314,0.2327,0.2188,0.2188,0.2188,0,0,0.1905,0.1939,0.1952,0.1999,0.2026,0.2079,0.2052,0.2097,0.2139,0.2111,0.2179,0.2201,0.22,0.2259,0.2282,0.2237,0.2338,0.2304,0.2313,0.2288,0.2318,0.2332,0.2344,0.219,0.219,0.2189,0,0,0.1926,0.1943,0.1983,0.2027,0.2089,0.2109,0.2129,0.2175,0.2188,0.2253,0.2257,0.2295,0.2341,0.2349,0.2356,0.2438,0.2419,0.2452,0.2468,0.2502,0.2514,0.2524,0.2555,0.2566,0.243,0.2431,0.2431,0,0.1925,0.1978,0.1998,0.2065,0.2103,0.2131,0.2183,0.2218,0.2274,0.2284,0.2289,0.2367,0.2381,0.243,0.2458,0.2467,0.2476,0.2427,0.2519,0.2528,0.2536,0.2565,0.2576,0.2437,0.2436,0.2436,0.2435,0,0.1983,0.2039,0.2073,0.2164,0.2196,0.2257,0.2307,0.2343,0.2369,0.2396,0.2462,0.2487,0.2507,0.2537,0.2525,0.2588,0.2578,0.2557,0.249,0.2558,0.2584,0.2593,0.2446,0.2444,0.2442,0.244,0,0,0.1973,0.2089,0.2113,0.2154,0.2257,0.2283,0.2357,0.2407,0.244,0.2504,0.254,0.2609,0.2606,0.261,0.2613,0.2632,0.2724,0.2614,0.2613,0.2652,0.2806,0.2731,0.2734,0.2728,0.273,0.2731,0.2813,0,0.2025,0.214,0.2184,0.2286,0.2341,0.2379,0.2433,0.2479,0.2519,0.2572,0.2593,0.2654,0.264,0.2661,0.2684,0.2729,0.2749,0.2703,0.2723,0.2723,0.2656,0.2742,0.2539,0.2588,0.2822,0.2823,0.2824,0,0.2088,0.2151,0.2243,0.2324,0.2348,0.24,0.2452,0.2511,0.258,0.2608,0.2652,0.2686,0.2747,0.2721,0.2803,0.278,0.2791,0.2809,0.2813,0.2694,0.2665,0.2549,0.2595,0.2839,0.2838,0.2837,0.2836,0,0.206,0.2198,0.2254,0.2297,0.239,0.2404,0.2449,0.2512,0.2546,0.2636,0.2681,0.2744,0.2804,0.2829,0.2866,0.285,0.2946,0.2926,0.2864,0.2859,0.2658,0.2632,0.296,0.296,0.296,0.296,0.2959,0,0.2095,0.2153,0.2246,0.2275,0.2323,0.2389,0.2428,0.2482,0.2557,0.2611,0.2698,0.2759,0.2838,0.2898,0.2899,0.2918,0.2974,0.2878,0.2877,0.2698,0.2676,0.2853,0.284,0.2963,0.2962,0.2961,0.2961,0,0.2055,0.2134,0.2198,0.2283,0.2307,0.2337,0.2408,0.2436,0.2536,0.2614,0.2652,0.28,0.2895,0.2941,0.3009,0.2971,0.2982,0.2958,0.2744,0.2715,0.2867,0.2859,0.2919,0.2917,0.2915,0.2914,0.2913,0,0.2041,0.207,0.217,0.2195,0.2229,0.2282,0.2305,0.2402,0.244,0.2627,0.2662,0.281,0.287,0.2957,0.2934,0.2924,0.2962,0.2713,0.2628,0.287,0.2864,0.2858,0.2853,0.2432,0.2427,0.2423,0.242,0,0.1994,0.2034,0.2078,0.2141,0.2174,0.22,0.2255,0.2275,0.2401,0.2482,0.2605,0.2679,0.2803,0.2729,0.2737,0.2695,0.27,0.2629,0.2951,0.2466,0.2415,0.2408,0.2418,0.2384,0.2387,0.239,0.2392,0.2393,0.1964,0.1988,0.2061,0.2097,0.2128,0.2127,0.2124,0.217,0.222,0.2299,0.2432,0.2463,0.2532,0.2446,0.2386,0.2352,0.2524,0.2401,0.2412,0.2428,0.2348,0.2297,0.2229,0.2231,0.2234,0.2236,0.2238,0,0.1968,0.1998,0.2015,0.2075,0.2054,0.2093,0.21,0.2059,0.2074,0.2116,0.216,0.2001,0.1982,0.2054,0.1963,0.1972,0.194,0.1884,0.1828,0.1866,0.19,0.1791,0.1526,0.1523,0.1521,0.1519,0,0,0.2002,0.2024,0.2017,0.1997,0.2008,0.1967,0.1945,0.1875,0.1866,0.1764,0.1732,0.1834,0.1974,0.1697,0.1693,0.1599,0.1709,0.1536,0.2113,0.2085,0.2115,0.2213,0.2091,0,0,0,0,0]},{"header":{"parameterUnit":"m.s-1","parameterCategory":2,"la1":30.2991,"la2":30.254,"lo1":-89.0895,"lo2":-89.0444,"dy":0.0017,"dx":0.0017,"nx":28,"ny":28,"refTime":"2024-04-16T03:00:00:Z","depth":"2","parameterNumber":3,"parameterNumberName":"V-component_of_CURRENTS"},"data":[0,0,0,0,0,0,0,0,0,0,0,0,0,0,0,0,0,0,0,0,0,0,0,0,0,0,0,0,0,0,0,0,0,0,0,0,0,0,0,0,0,0,0,0,0,0,0,0,0,0,0,0,0,0,0,0,0,0,-0.0151,-0.0152,0,-0.0183,-0.0183,-0.0184,-0.0205,-0.0206,-0.0206,-0.0206,-0.0283,-0.0285,-0.0287,0,0,0,0,0,0,0,0,0,0,0,0,0,-0.0131,-0.0131,-0.0151,-0.0152,-0.0152,-0.0183,-0.0183,-0.0184,-0.0205,-0.0206,-0.0206,-0.0206,-0.0282,-0.0285,-0.0287,0,0,0,0,0,0,0,0,0,0,0,0,0,-0.0148,-0.0131,-0.0151,-0.0168,-0.0169,-0.0183,-0.0183,-0.0184,-0.0205,-0.0206,-0.0206,-0.0206,-0.0282,-0.0284,-0.0287,-0.0296,0,0,-0.0295,-0.0297,0,0,0,0,0,0,0,0,-0.0147,-0.0148,-0.0165,-0.0166,-0.0169,-0.0192,-0.0204,-0.0224,-0.0205,-0.0191,-0.0206,-0.0207,-0.0257,-0.0262,-0.0265,-0.03,-0.0303,-0.0296,-0.0297,-0.0298,-0.0299,0,0,0,0,0,0,0,-0.0145,-0.0147,-0.0163,-0.0165,-0.0168,-0.0181,-0.0183,-0.0208,-0.0221,-0.0192,-0.0194,-0.0199,-0.0258,-0.0262,-0.0267,-0.0304,-0.0296,-0.0298,-0.03,-0.0301,-0.036,-0.036,0,0,0,0,0,0,-0.0142,-0.0146,-0.0162,-0.0164,-0.0159,-0.0181,-0.0183,-0.0183,-0.022,-0.0226,-0.0198,-0.02,-0.0257,-0.0264,-0.027,-0.0296,-0.0298,-0.0301,-0.0303,-0.036,-0.036,-0.036,0,0,0,0,0,0,-0.0141,-0.0143,-0.0161,-0.0157,-0.016,-0.018,-0.018,-0.0183,-0.0188,-0.0225,-0.0232,-0.02,-0.0258,-0.0266,-0.0292,-0.0299,-0.0302,-0.0305,-0.036,-0.036,-0.036,-0.0341,0,0,0,0,0,0,-0.014,-0.0142,-0.0137,-0.0156,-0.016,-0.0164,-0.018,-0.0184,-0.0191,-0.0193,-0.0228,-0.0236,-0.0259,-0.0287,-0.0294,-0.0303,-0.0307,-0.036,-0.036,-0.036,-0.0342,-0.034,-0.0339,0,0,0,0,0,-0.0139,-0.0127,-0.0136,-0.0138,-0.0153,-0.0164,-0.0167,-0.0183,-0.0191,-0.0189,-0.0215,-0.0235,-0.0292,-0.0289,-0.0298,-0.0307,-0.036,-0.036,-0.036,-0.0342,-0.0341,-0.0339,0,0,0,0,0,0,-0.0112,-0.0129,-0.0139,-0.0132,-0.0147,-0.0168,-0.0167,-0.018,-0.0197,-0.0202,-0.0235,-0.0244,-0.0272,-0.0288,-0.0284,-0.0323,-0.0329,-0.033,-0.0313,-0.0311,-0.031,-0.0282,-0.0309,0,0,0,0,0,-0.0105,-0.0105,-0.0123,-0.012,-0.0124,-0.0146,-0.0151,-0.0165,-0.0185,-0.0193,-0.0222,-0.025,-0.0277,-0.0291,-0.0318,-0.0337,-0.0344,-0.0347,-0.0346,-0.0345,-0.0327,-0.0353,-0.0352,-0.036,-0.036,-0.036,0,0,-0.0096,-0.0105,-0.0105,-0.0115,-0.0127,-0.013,-0.0149,-0.0157,-0.0164,-0.02,-0.0219,-0.025,-0.0281,-0.0306,-0.0319,-0.032,-0.0346,-0.0345,-0.0344,-0.0325,-0.0353,-0.0352,-0.0351,-0.0359,-0.0359,-0.0359,0,0,-0.0073,-0.0083,-0.0073,-0.0085,-0.0102,-0.0116,-0.0117,-0.0142,-0.0155,-0.0177,-0.0207,-0.0239,-0.0276,-0.0302,-0.0319,-0.0324,-0.034,-0.0334,-0.0304,-0.033,-0.033,-0.0329,-0.0333,-0.0333,-0.0331,-0.033,-0.033,0,-0.0062,-0.0052,-0.0072,-0.0068,-0.0071,-0.0108,-0.0096,-0.0119,-0.0152,-0.0155,-0.0179,-0.0236,-0.0274,-0.0296,-0.03,-0.0322,-0.0326,-0.031,-0.0328,-0.0328,-0.0328,-0.0331,-0.0332,-0.033,-0.033,-0.033,-0.033,0,-0.0034,-0.0029,-0.0025,-0.0033,-0.0037,-0.0038,-0.0067,-0.008,-0.0105,-0.0125,-0.0156,-0.0212,-0.0235,-0.0266,-0.0285,-0.0302,-0.0302,-0.0327,-0.0331,-0.0326,-0.033,-0.0331,-0.0328,-0.0329,-0.0329,-0.0329,0,0,-0.0006,-0.0003,-0.0005,0.0008,-0.0017,-0.0013,-0.0025,-0.0033,-0.0024,-0.0086,-0.0077,-0.0152,-0.0176,-0.0195,-0.0238,-0.0269,-0.0285,-0.0289,-0.0291,-0.0288,-0.032,-0.0337,-0.0339,-0.0313,-0.0314,-0.0314,-0.0321,0,0.0021,0.0048,0.0038,0.006,0.0075,0.0046,0.0049,0.0032,0.0009,0.0002,-0.0068,-0.0081,-0.0152,-0.0156,-0.0204,-0.026,-0.0286,-0.0279,-0.0327,-0.0328,-0.0342,-0.0341,-0.0314,-0.0321,-0.0322,-0.0322,-0.0322,0,0.0054,0.0066,0.0105,0.0126,0.0133,0.0142,0.0158,0.0154,0.0128,0.0113,0.0074,0.0028,-0.0027,-0.0087,-0.0186,-0.0175,-0.0235,-0.0289,-0.0292,-0.031,-0.0346,-0.0327,-0.0322,-0.0323,-0.0323,-0.0323,-0.0323,0,0.0102,0.0116,0.0157,0.0158,0.0172,0.0194,0.0203,0.0195,0.0216,0.0194,0.0212,0.0123,0.0106,-0.0004,-0.0124,-0.0146,-0.0225,-0.0273,-0.0345,-0.0346,-0.0333,-0.0333,-0.0332,-0.0332,-0.0332,-0.0332,-0.0332,0,0.0147,0.0174,0.0186,0.0208,0.0262,0.0254,0.0316,0.0309,0.0322,0.0371,0.0282,0.0301,0.0129,0.0058,-0.0077,-0.0204,-0.019,-0.0327,-0.0351,-0.0325,-0.0325,-0.0336,-0.0337,-0.0332,-0.0332,-0.0332,-0.0332,0,0.0207,0.0209,0.0256,0.0281,0.0295,0.0339,0.0396,0.0436,0.0443,0.0506,0.051,0.0448,0.0355,0.018,0.0021,-0.0117,-0.0255,-0.03,-0.0248,-0.0266,-0.0369,-0.0368,-0.0384,-0.0385,-0.0386,-0.0386,-0.0387,0,0.0248,0.0279,0.0319,0.0356,0.0376,0.0435,0.0479,0.0495,0.0549,0.0604,0.0644,0.0584,0.0542,0.0292,0.0047,-0.0184,-0.0224,-0.0302,-0.0359,-0.0353,-0.0375,-0.0373,-0.0372,-0.0328,-0.0328,-0.0328,-0.0328,0,0.032,0.0332,0.0371,0.0445,0.0499,0.056,0.0631,0.069,0.0732,0.0782,0.0843,0.0816,0.0599,0.0366,0.0053,-0.0108,-0.0276,-0.0309,-0.0308,-0.0326,-0.0304,-0.0324,-0.0323,-0.0327,-0.0327,-0.0327,-0.0328,-0.0328,0.0375,0.0415,0.0464,0.0532,0.0597,0.068,0.0742,0.0823,0.0911,0.0972,0.096,0.0912,0.0684,0.0262,0.0013,-0.0255,-0.0262,-0.0367,-0.0366,-0.0365,-0.0365,-0.0346,-0.0375,-0.0375,-0.0376,-0.0376,-0.0376,0,0.0437,0.0477,0.0546,0.0625,0.0694,0.0725,0.0833,0.0881,0.0988,0.1031,0.1044,0.0819,0.0573,0.0311,-0.0079,-0.0318,-0.0342,-0.0393,-0.0364,-0.0363,-0.0362,-0.0361,-0.0371,-0.0371,-0.0372,-0.0373,0,0,0.0473,0.0534,0.0554,0.0668,0.0744,0.0824,0.0884,0.0956,0.1002,0.1038,0.1009,0.0918,0.0643,0.0363,0.0056,-0.0153,-0.0212,-0.0204,-0.0184,-0.0114,-0.011,-0.0324,-0.0318,0,0,0,0,0]}],[{"header":{"parameterUnit":"m.s-1","parameterCategory":2,"la1":30.2991,"la2":30.254,"lo1":-89.0895,"lo2":-89.0444,"dy":0.0017,"dx":0.0017,"nx":28,"ny":28,"refTime":"2024-04-16T03:00:00:Z","depth":"4","parameterNumber":2,"parameterNumberName":"U-component_of_CURRENTS"},"data":[0,0,0,0,0,0,0,0,0,0,0,0,0,0,0,0,0,0,0,0,0,0,0,0,0,0,0,0,0,0,0,0,0,0,0,0,0,0,0,0,0,0,0,0,0,0,0,0,0,0,0,0,0,0,0,0,0,0,0.0986,0.0986,0,0.1041,0.1041,0.1042,0.1099,0.11,0.1101,0.1102,0.1156,0.1156,0.1157,0,0,0,0,0,0,0,0,0,0,0,0,0,0.0959,0.0959,0.0985,0.0986,0.0987,0.1041,0.1041,0.1042,0.1099,0.11,0.1101,0.1103,0.1156,0.1156,0.1157,0,0,0,0,0,0,0,0,0,0,0,0,0,0.0986,0.0959,0.0985,0.1024,0.1028,0.1041,0.1041,0.1042,0.1099,0.11,0.1102,0.1103,0.1156,0.1156,0.1157,0.1132,0,0,0.1159,0.116,0,0,0,0,0,0,0,0,0.0984,0.0986,0.1017,0.1021,0.1026,0.1067,0.1052,0.1073,0.1098,0.1069,0.1102,0.1104,0.1126,0.113,0.1133,0.1134,0.1136,0.1159,0.116,0.116,0.116,0,0,0,0,0,0,0,0.0982,0.0985,0.1005,0.1018,0.1024,0.1049,0.1054,0.1056,0.1087,0.1072,0.1077,0.1086,0.1129,0.1132,0.1135,0.1137,0.1159,0.116,0.116,0.1161,0.1232,0.1234,0,0,0,0,0,0,0.0977,0.0982,0.1003,0.1007,0.1011,0.1048,0.1054,0.105,0.1087,0.1095,0.1085,0.1089,0.113,0.1134,0.1137,0.119,0.116,0.1161,0.1161,0.1231,0.1233,0.1234,0,0,0,0,0,0,0.0976,0.0977,0.1001,0.0999,0.1004,0.1047,0.1043,0.1051,0.1088,0.1097,0.1105,0.1118,0.1132,0.1136,0.1158,0.119,0.1161,0.1162,0.1229,0.1231,0.1233,0.1245,0,0,0,0,0,0,0.0974,0.0976,0.0985,0.0998,0.1004,0.1024,0.1042,0.1051,0.109,0.1097,0.1127,0.1132,0.1133,0.1157,0.1159,0.1191,0.1162,0.1227,0.123,0.1233,0.1243,0.1247,0.1251,0,0,0,0,0,0.0973,0.0972,0.0984,0.0988,0.1009,0.1025,0.103,0.1065,0.1091,0.1104,0.1125,0.1133,0.1177,0.1158,0.116,0.1193,0.1226,0.1229,0.1232,0.1241,0.1246,0.1251,0,0,0,0,0,0,0.097,0.0978,0.0992,0.0996,0.1018,0.1036,0.1045,0.1079,0.1107,0.1122,0.1134,0.1139,0.1173,0.1181,0.116,0.1225,0.121,0.1214,0.1216,0.1221,0.1225,0.1255,0.1163,0,0,0,0,0,0.0971,0.0977,0.0989,0.1001,0.0997,0.1028,0.1045,0.1079,0.11,0.1116,0.1133,0.1161,0.1182,0.12,0.1212,0.1237,0.1264,0.1268,0.1272,0.1275,0.1304,0.1359,0.1371,0.1245,0.1245,0.1245,0,0,0.0976,0.0984,0.0989,0.1003,0.1009,0.1002,0.1041,0.1073,0.1093,0.1114,0.1138,0.1168,0.1191,0.122,0.1239,0.1235,0.1323,0.1279,0.1282,0.1309,0.1364,0.1376,0.1387,0.1247,0.1247,0.1246,0,0,0.0981,0.0984,0.0984,0.0998,0.1026,0.1018,0.1033,0.1062,0.1096,0.1131,0.1154,0.1197,0.1229,0.1248,0.1263,0.1298,0.1337,0.1326,0.1376,0.1428,0.1439,0.1449,0.1484,0.1497,0.1334,0.1334,0.1334,0,0.0992,0.0986,0.0992,0.0997,0.1,0.1019,0.1018,0.1041,0.1091,0.1146,0.1145,0.1244,0.1238,0.1302,0.1317,0.1305,0.1355,0.1348,0.1434,0.1444,0.1454,0.1487,0.1502,0.1335,0.1335,0.1335,0.1335,0,0.0981,0.0995,0.0989,0.098,0.0985,0.0992,0.1005,0.1057,0.1096,0.1144,0.1243,0.1252,0.1333,0.1331,0.1332,0.142,0.1438,0.1423,0.1417,0.1468,0.1499,0.1513,0.1337,0.1336,0.1336,0.1336,0,0,0.0949,0.0975,0.0974,0.0992,0.0983,0.099,0.1022,0.1072,0.1152,0.1207,0.1306,0.134,0.1408,0.1431,0.145,0.149,0.1566,0.1507,0.151,0.1536,0.1706,0.1581,0.1585,0.1592,0.1595,0.1597,0.1693,0,0.0933,0.0931,0.0952,0.0958,0.0938,0.0999,0.1037,0.1115,0.1177,0.1275,0.1345,0.142,0.1424,0.1485,0.1532,0.1566,0.1612,0.1543,0.166,0.1663,0.1541,0.1599,0.1607,0.1703,0.1707,0.1709,0.1711,0,0.09,0.09,0.0885,0.0974,0.0977,0.1018,0.1115,0.1168,0.1312,0.1384,0.15,0.1544,0.1633,0.1604,0.1726,0.1702,0.1723,0.173,0.1734,0.1631,0.1566,0.1649,0.1738,0.1736,0.1734,0.1732,0.173,0,0.0847,0.0873,0.0855,0.0868,0.0937,0.1033,0.1111,0.1242,0.1326,0.147,0.1538,0.166,0.172,0.1791,0.182,0.1802,0.1929,0.1887,0.1794,0.1784,0.1861,0.185,0.1969,0.1969,0.1968,0.1968,0.1968,0,0.0813,0.0833,0.0859,0.088,0.0943,0.1029,0.1176,0.1286,0.1443,0.1525,0.1611,0.1668,0.1778,0.1849,0.1874,0.189,0.1981,0.1826,0.1811,0.186,0.1848,0.187,0.1858,0.1972,0.1971,0.197,0.197,0,0.0796,0.079,0.0822,0.0905,0.0934,0.1016,0.123,0.1342,0.1476,0.1581,0.1622,0.1724,0.1803,0.1883,0.1974,0.1932,0.1958,0.1933,0.1995,0.1978,0.1765,0.1753,0.1846,0.1843,0.184,0.1837,0.1835,0,0.0788,0.0774,0.0831,0.0855,0.0926,0.1053,0.1152,0.1345,0.1415,0.1582,0.1586,0.1718,0.1767,0.1815,0.1893,0.1953,0.192,0.1924,0.1835,0.1782,0.1759,0.175,0.1741,0.1831,0.183,0.1829,0.1828,0,0.0778,0.0801,0.0836,0.0857,0.095,0.1022,0.1167,0.122,0.139,0.1503,0.1542,0.1602,0.1675,0.1738,0.1804,0.1829,0.192,0.1893,0.1898,0.1815,0.1765,0.1742,0.1737,0.1819,0.182,0.1821,0.1822,0,0.0787,0.0804,0.0821,0.0861,0.0923,0.0949,0.1071,0.1147,0.1243,0.1396,0.1406,0.1538,0.165,0.1673,0.1727,0.1758,0.1722,0.166,0.1676,0.1688,0.159,0.1501,0.1482,0,0,0,0,0,0.0754,0.0765,0.0805,0.0829,0.0892,0.0912,0.101,0.1114,0.1251,0.1248,0.1334,0.1393,0.1484,0.1538,0.1541,0.1647,0.1725,0.164,0.166,0.1764,0.1775,0.1673,0,0,0,0,0,0,0.0728,0.0763,0.078,0.0765,0.0771,0.082,0.0888,0.0999,0.0986,0.113,0.1181,0.1292,0.139,0.1471,0.1506,0.1528,0.1511,0.1727,0.1724,0.1757,0.1767,0.1777,0.1676,0,0,0,0,0]},{"header":{"parameterUnit":"m.s-1","parameterCategory":2,"la1":30.2991,"la2":30.254,"lo1":-89.0895,"lo2":-89.0444,"dy":0.0017,"dx":0.0017,"nx":28,"ny":28,"refTime":"2024-04-16T03:00:00:Z","depth":"4","parameterNumber":3,"parameterNumberName":"V-component_of_CURRENTS"},"data":[0,0,0,0,0,0,0,0,0,0,0,0,0,0,0,0,0,0,0,0,0,0,0,0,0,0,0,0,0,0,0,0,0,0,0,0,0,0,0,0,0,0,0,0,0,0,0,0,0,0,0,0,0,0,0,0,0,0,0.0024,0.0024,0,0.0006,0.0006,0.0005,-0.0028,-0.0028,-0.0029,-0.003,-0.0078,-0.0079,-0.008,0,0,0,0,0,0,0,0,0,0,0,0,0,0.0005,0.0006,0.0024,0.0024,0.0023,0.0006,0.0006,0.0005,-0.0028,-0.0028,-0.0029,-0.003,-0.0078,-0.0079,-0.008,0,0,0,0,0,0,0,0,0,0,0,0,0,0.0003,0.0006,0.0024,0.0005,0.0003,0.0006,0.0006,0.0005,-0.0028,-0.0029,-0.0029,-0.003,-0.0078,-0.0079,-0.008,-0.0068,0,0,-0.0083,-0.0084,0,0,0,0,0,0,0,0,0.0003,0.0004,0.0008,0.0006,0.0004,-0.0009,-0.0019,-0.0021,-0.0027,-0.0016,-0.003,-0.0031,-0.0057,-0.006,-0.0061,-0.007,-0.0072,-0.0083,-0.0084,-0.0084,-0.0085,0,0,0,0,0,0,0,0.0003,0.0004,0.0016,0.0008,0.0006,-0.0011,-0.0012,-0.0019,-0.0032,-0.0017,-0.002,-0.0021,-0.0059,-0.006,-0.0063,-0.0073,-0.0083,-0.0084,-0.0085,-0.0085,-0.0093,-0.0093,0,0,0,0,0,0,0.0009,0.0005,0.0017,0.0016,0.0002,-0.001,-0.0011,-0.0004,-0.0031,-0.0036,-0.002,-0.0022,-0.0058,-0.0062,-0.0065,-0.0039,-0.0084,-0.0085,-0.0086,-0.0093,-0.0093,-0.0092,0,0,0,0,0,0,0.0008,0.001,0.0018,0.0009,0.0009,-0.0008,-0.0001,-0.0004,-0.0009,-0.0033,-0.0039,-0.0021,-0.0059,-0.0063,-0.0064,-0.0042,-0.0086,-0.0087,-0.0094,-0.0093,-0.0093,0.0003,0,0,0,0,0,0,0.0008,0.0011,0.0016,0.001,0.001,0.0027,0.0,-0.0004,-0.0008,-0.0011,-0.0036,-0.0041,-0.006,-0.0062,-0.0065,-0.0044,-0.0088,-0.0094,-0.0094,-0.0093,-0.0001,0.0007,0.0013,0,0,0,0,0,0.0008,0.0026,0.0017,0.0018,0.0019,0.0028,0.0027,0.0011,-0.0007,0.0001,-0.0016,-0.0041,-0.006,-0.0062,-0.0065,-0.0045,-0.0095,-0.0094,-0.0093,-0.0004,0.0005,0.0013,0,0,0,0,0,0,0.0021,0.0024,0.0014,0.0031,0.0031,0.0023,0.0032,0.0015,0.0008,0.0004,-0.0027,-0.0032,-0.0028,-0.0052,-0.0054,-0.0048,-0.0084,-0.0084,-0.0016,-0.0007,-0.0,0.0013,-0.0089,0,0,0,0,0,0.0027,0.0039,0.0037,0.005,0.0057,0.0044,0.0044,0.0033,0.0025,0.0021,0.0006,-0.0014,-0.0025,-0.0028,-0.0043,-0.0031,-0.0077,-0.0026,-0.0019,-0.0012,-0.0006,-0.0065,-0.0063,-0.0089,-0.0089,-0.0089,0,0,0.0033,0.0037,0.0042,0.0053,0.0055,0.0081,0.0042,0.0052,0.0074,0.0018,0.0045,0.0011,-0.0019,-0.0007,-0.0008,-0.0023,-0.0027,-0.0011,-0.0005,-0.0002,-0.0064,-0.0061,-0.0059,-0.0088,-0.0088,-0.0089,0,0,0.0061,0.0062,0.0085,0.0096,0.0103,0.0105,0.0109,0.0108,0.0111,0.0128,0.0089,0.0073,0.0063,0.0048,0.0038,0.0074,0.0009,0.0059,0.0113,0.0056,0.0058,0.0059,0.0016,0.0013,0.0066,0.0066,0.0067,0,0.0066,0.0101,0.0092,0.0123,0.0144,0.0122,0.016,0.0167,0.0163,0.0161,0.0149,0.0114,0.0096,0.0095,0.0111,0.0094,0.0044,0.0089,0.0066,0.0066,0.0065,0.0021,0.0016,0.0071,0.0071,0.007,0.007,0,0.0116,0.0145,0.0167,0.0203,0.0221,0.0252,0.0264,0.0272,0.0269,0.0258,0.0253,0.0225,0.0192,0.019,0.0169,0.0155,0.0116,0.008,0.0049,0.0074,0.0026,0.0019,0.0078,0.0076,0.0075,0.0074,0,0,0.0132,0.0191,0.0199,0.023,0.0269,0.0289,0.0333,0.0354,0.0359,0.0355,0.0356,0.0349,0.0298,0.0282,0.0241,0.021,0.0178,0.0151,0.0145,0.0117,0.005,0.0036,0.0026,0.0125,0.0124,0.0124,0.0022,0,0.0178,0.0251,0.0271,0.0345,0.039,0.0393,0.0427,0.0433,0.0432,0.0425,0.039,0.0372,0.0344,0.0318,0.0285,0.0196,0.0161,0.0209,0.0022,0.0017,0.0008,0.0018,0.0121,0.0017,0.0015,0.0014,0.0013,0,0.0228,0.0272,0.0356,0.0413,0.0431,0.0468,0.0502,0.0527,0.0507,0.0493,0.0462,0.0416,0.0381,0.0344,0.0226,0.0249,0.0161,0.0098,0.0091,0.0039,-0.001,-0.002,-0.0001,-0.0,0.0001,0.0002,0.0003,0,0.0248,0.0332,0.0403,0.0429,0.0488,0.0516,0.054,0.0541,0.0555,0.0526,0.0507,0.0449,0.0406,0.0306,0.0189,0.0191,0.0042,0.0022,-0.007,-0.0072,-0.0071,-0.0071,-0.0072,-0.0072,-0.0072,-0.0071,-0.0071,0,0.0298,0.0352,0.0418,0.0454,0.0519,0.0544,0.0587,0.0589,0.0584,0.0581,0.0534,0.0502,0.0387,0.0291,0.0188,0.0041,0.0032,-0.0057,-0.01,-0.0027,-0.0021,-0.0076,-0.0075,-0.0075,-0.0074,-0.0074,-0.0073,0,0.0313,0.0364,0.0438,0.0507,0.0533,0.0575,0.0627,0.0635,0.0628,0.0621,0.061,0.0528,0.0398,0.0282,0.0108,0.0032,-0.01,-0.0158,-0.006,-0.0097,-0.0173,-0.0166,-0.0258,-0.0259,-0.026,-0.0261,-0.0262,0,0.033,0.0369,0.0461,0.0503,0.0543,0.0605,0.0629,0.0654,0.0659,0.0628,0.0611,0.0504,0.0431,0.0191,0.0062,-0.0129,-0.0161,-0.0223,-0.0192,-0.016,-0.0193,-0.0184,-0.0176,-0.0264,-0.0264,-0.0265,-0.0265,0,0.0342,0.0371,0.042,0.0497,0.0554,0.0614,0.0654,0.0668,0.0673,0.0676,0.06,0.049,0.0338,0.0176,0.0021,-0.0116,-0.017,-0.0236,-0.0234,-0.0206,-0.0169,-0.0198,-0.0189,-0.0269,-0.0268,-0.0268,-0.0268,0,0.0323,0.0354,0.0401,0.0474,0.0544,0.059,0.0631,0.0632,0.0645,0.0628,0.0595,0.0456,0.0383,0.0178,0.0036,-0.0095,-0.0124,-0.0155,-0.0158,-0.0155,-0.0091,-0.0026,-0.0118,0,0,0,0,0,0.0295,0.0312,0.0367,0.0441,0.0511,0.055,0.0618,0.0647,0.067,0.0621,0.0616,0.048,0.0274,0.0181,0.0046,0.0003,-0.0155,-0.016,-0.0194,-0.0291,-0.0287,-0.0229,0,0,0,0,0,0,0.0266,0.0306,0.0339,0.0392,0.0433,0.0498,0.0546,0.0574,0.0554,0.0567,0.0459,0.0433,0.023,0.0337,0.0032,-0.0006,-0.0046,-0.0247,-0.025,-0.0294,-0.029,-0.0286,-0.0225,0,0,0,0,0]}]]